FW0824 Weather Reports


time (UTC)temp
F
wind
direction
speed
knots
gust
knots
rain 1hr
in
rain 24hr
in
rain mn
in
humidity
%
barometer
mb
20210916103030 67 145 4.3 10.4 0.01 0.01 0.01 70 1012.3
20210916102530 68 177 4.3 10.4 0.01 0.01 0.01 67 1012.1
20210916102030 68 179 4.3 10.4 0.00 0.00 0.00 65 1012.4
20210916101529 68 192 4.3 10.4 0.00 0.00 0.00 64 1012.4
20210916101029 68 221 4.3 10.4 0.00 0.00 0.00 64 1012.3
20210916100529 68 198 4.3 10.4 0.00 0.00 0.00 64 1012.3
20210916100028 68 190 4.3 10.4 0.00 0.00 0.00 63 1012.4
20210916095530 68 177 3.5 10.4 0.00 0.00 0.00 63 1012.3
20210916095026 68 180 4.3 10.4 0.00 0.00 0.00 63 1012.4
20210916094527 68 252 3.5 9.6 0.00 0.00 0.00 63 1012.4
20210916094025 68 204 3.5 8.7 0.00 0.00 0.00 63 1012.4
20210916093526 68 215 4.3 8.7 0.00 0.00 0.00 63 1012.6
20210916093025 68 240 4.3 10.4 0.00 0.00 0.00 63 1012.6
20210916092526 69 165 4.3 11.3 0.00 0.00 0.00 62 1012.5
20210916092025 69 183 5.2 12.2 0.00 0.00 0.00 62 1012.6
20210916091520 69 210 5.2 14.8 0.00 0.00 0.00 62 1012.6
20210916091022 69 194 5.2 14.8 0.00 0.00 0.00 62 1012.7
20210916090520 69 165 5.2 9.6 0.00 0.00 0.00 62 1012.7
20210916090022 69 168 5.2 10.4 0.00 0.00 0.00 62 1012.6
20210916085520 69 190 5.2 15.6 0.00 0.00 0.00 61 1012.6
20210916085019 69 240 5.2 15.6 0.00 0.00 0.00 61 1012.7
20210916084517 69 156 5.2 13.9 0.00 0.00 0.00 61 1012.7
20210916084015 69 192 5.2 13.0 0.00 0.00 0.00 61 1012.6
20210916083515 69 149 5.2 13.0 0.00 0.00 0.00 61 1012.7
20210916083016 69 196 5.2 13.0 0.00 0.00 0.00 60 1012.6
20210916082514 69 224 4.3 13.0 0.00 0.00 0.00 60 1012.8
20210916082013 69 200 4.3 11.3 0.00 0.00 0.00 60 1012.8
20210916081508 70 238 5.2 12.2 0.00 0.00 0.00 59 1012.8
20210916081008 70 270 4.3 12.2 0.00 0.00 0.00 59 1012.7
20210916080508 70 160 4.3 11.3 0.00 0.00 0.00 59 1012.8
20210916080008 70 132 6.1 13.9 0.00 0.00 0.00 59 1013.0
20210916075507 70 167 7.0 16.5 0.00 0.00 0.00 59 1013.0
20210916075007 70 260 5.2 16.5 0.00 0.00 0.00 59 1013.1
20210916074502 70 215 5.2 15.6 0.00 0.00 0.00 59 1013.1
20210916074003 70 192 6.1 15.6 0.00 0.00 0.00 59 1013.3
20210916073501 70 159 5.2 12.2 0.00 0.00 0.00 59 1013.3
20210916073002 70 148 5.2 13.9 0.00 0.00 0.00 59 1013.4
20210916072502 70 189 4.3 13.9 0.00 0.00 0.00 59 1013.4
20210916072002 69 169 4.3 12.2 0.00 0.00 0.00 59 1013.4
20210916071502 69 174 4.3 12.2 0.00 0.00 0.00 59 1013.5
20210916071001 69 151 4.3 8.7 0.00 0.00 0.00 59 1013.4
20210916070505 69 183 3.5 8.7 0.00 0.00 0.00 58 1013.5
20210916070002 69 147 3.5 8.7 0.00 0.00 0.00 58 1013.5
20210916065503 69 148 4.3 8.7 0.00 0.00 0.00 58 1013.6
20210916065002 69 188 3.5 9.6 0.00 0.00 0.00 57 1013.5
20210916064501 69 173 3.5 9.6 0.00 0.00 0.00 57 1013.5
20210916064003 69 169 3.5 10.4 0.00 0.00 0.00 57 1013.5
20210916063501 69 164 3.5 10.4 0.00 0.00 0.00 56 1013.4
20210916063001 69 204 4.3 14.8 0.00 0.00 0.00 56 1013.5
20210916062502 69 157 4.3 14.8 0.00 0.00 0.00 56 1013.5
20210916062001 69 180 5.2 11.3 0.00 0.00 0.00 55 1013.5
20210916061501 69 157 5.2 11.3 0.00 0.00 0.00 55 1013.6
20210916061001 69 150 5.2 11.3 0.00 0.00 0.00 55 1013.6
20210916060504 69 219 5.2 12.2 0.00 0.00 0.00 55 1013.5
20210916060002 69 197 4.3 12.2 0.00 0.00 0.00 55 1013.6
20210916055501 69 168 4.3 10.4 0.00 0.00 0.00 55 1013.5
20210916055000 69 190 4.3 11.3 0.00 0.00 0.00 55 1013.7
20210916054503 69 152 4.3 11.3 0.00 0.00 0.00 55 1013.8
20210916054001 69 137 4.3 10.4 0.00 0.00 0.00 55 1013.9
20210916053501 69 188 4.3 10.4 0.00 0.00 0.00 55 1013.9
20210916053001 69 152 4.3 10.4 0.00 0.00 0.00 55 1013.9
20210916052502 69 141 4.3 10.4 0.00 0.00 0.00 55 1013.9
20210916052002 68 129 3.5 9.6 0.00 0.00 0.00 55 1013.9
20210916051502 68 154 4.3 10.4 0.00 0.00 0.00 55 1013.8
20210916051000 68 166 4.3 11.3 0.00 0.00 0.00 55 1013.8
20210916050500 68 188 4.3 11.3 0.00 0.00 0.00 55 1013.9
20210916050006 68 159 4.3 10.4 0.00 0.00 0.00 55 1013.9
20210916045502 68 200 4.3 10.4 0.00 0.00 0.00 55 1013.8
20210916045000 68 203 4.3 10.4 0.00 0.00 0.00 54 1014.0
20210916044501 68 180 3.5 10.4 0.00 0.00 0.00 54 1014.1
20210916044000 68 140 3.5 7.8 0.00 0.00 0.00 54 1014.2
20210916043502 68 174 3.5 8.7 0.00 0.00 0.00 54 1014.2
20210916043002 69 169 3.5 8.7 0.00 0.00 0.00 53 1014.2
20210916042501 69 155 3.5 8.7 0.00 0.00 0.00 53 1014.2
20210916042001 69 136 3.5 10.4 0.00 0.00 0.00 52 1014.3
20210916041502 69 146 3.5 10.4 0.00 0.00 0.00 52 1014.3
20210916041002 69 200 2.6 8.7 0.00 0.00 0.00 52 1014.3
20210916040503 69 201 3.5 8.7 0.00 0.00 0.00 51 1014.5
20210916035502 70 173 4.3 12.2 0.00 0.00 0.00 50 1014.4
20210916035001 70 151 4.3 12.2 0.00 0.00 0.00 50 1014.4
20210916034500 70 190 4.3 13.0 0.00 0.00 0.00 50 1014.4
20210916034002 70 161 4.3 13.0 0.00 0.00 0.00 50 1014.5
20210916033501 70 162 3.5 11.3 0.00 0.00 0.00 50 1014.4
20210916033001 70 186 3.5 11.3 0.00 0.00 0.00 50 1014.3
20210916032501 70 143 3.5 9.6 0.00 0.00 0.00 50 1014.4
20210916032002 70 191 5.2 11.3 0.00 0.00 0.00 49 1014.3
20210916031500 70 157 5.2 12.2 0.00 0.00 0.00 49 1014.2
20210916031000 70 132 4.3 12.2 0.00 0.00 0.00 49 1014.2
20210916030500 70 161 3.5 11.3 0.00 0.00 0.00 49 1014.1
20210916030000 70 187 3.5 11.3 0.00 0.00 0.00 49 1014.2
20210916025503 70 180 3.5 13.0 0.00 0.00 0.00 49 1014.2
20210916025002 70 133 3.5 13.0 0.00 0.00 0.00 48 1014.1
20210916024503 70 136 3.5 13.0 0.00 0.00 0.00 48 1014.2
20210916024001 71 164 3.5 10.4 0.00 0.00 0.00 48 1014.1
20210916023502 71 209 3.5 12.2 0.00 0.00 0.00 48 1014.1
20210916023001 71 154 3.5 12.2 0.00 0.00 0.00 48 1014.0
20210916022502 71 152 4.3 13.0 0.00 0.00 0.00 48 1014.1
20210916022000 71 146 4.3 13.0 0.00 0.00 0.00 48 1014.0
20210916021501 71 141 4.3 9.6 0.00 0.00 0.00 48 1014.0
20210916021000 71 113 4.3 11.3 0.00 0.00 0.00 48 1013.8
20210916020501 71 138 4.3 11.3 0.00 0.00 0.00 48 1013.8
20210916020003 71 148 4.3 9.6 0.00 0.00 0.00 47 1013.9
20210916015502 71 136 3.5 10.4 0.00 0.00 0.00 47 1013.9
20210916015002 71 145 3.5 10.4 0.00 0.00 0.00 47 1013.8
20210916014501 71 147 4.3 11.3 0.00 0.00 0.00 47 1013.7
20210916014001 71 154 5.2 11.3 0.00 0.00 0.00 47 1013.7
20210916013502 71 134 4.3 10.4 0.00 0.00 0.00 46 1013.6
20210916013001 71 136 3.5 8.7 0.00 0.00 0.00 46 1013.7
20210916012501 72 140 2.6 7.0 0.00 0.00 0.00 45 1013.7
20210916012001 72 140 2.6 4.3 0.00 0.00 0.00 45 1013.6
20210916011501 72 143 2.6 6.1 0.00 0.00 0.00 45 1013.7
20210916011002 72 146 2.6 7.0 0.00 0.00 0.00 44 1013.6
20210916010459 72 143 2.6 7.8 0.00 0.00 0.00 44 1013.6
20210916005954 72 138 2.6 7.8 0.00 0.00 0.00 44 1013.5
20210916005455 73 156 3.5 6.1 0.00 0.00 0.00 43 1013.5
20210916004955 73 153 2.6 6.1 0.00 0.00 0.00 43 1013.5
20210916004453 73 146 1.7 6.1 0.00 0.00 0.00 43 1013.5
20210916003951 73 169 1.7 4.3 0.00 0.00 0.00 43 1013.4
20210916003445 74 135 1.7 4.3 0.00 0.00 0.00 42 1013.4
20210916002942 74 136 1.7 7.0 0.00 0.00 0.00 42 1013.4
20210916002441 74 136 1.7 7.8 0.00 0.00 0.00 41 1013.3
20210916001938 74 138 1.7 7.8 0.00 0.00 0.00 41 1013.3
20210916001439 75 142 2.6 7.8 0.00 0.00 0.00 40 1013.1
20210916000934 75 148 3.5 7.8 0.00 0.00 0.00 40 1013.1
20210916000432 75 144 2.6 8.7 0.00 0.00 0.00 39 1013.1
20210915235932 75 138 2.6 8.7 0.00 0.00 0.00 39 1013.1
20210915235429 75 153 3.5 10.4 0.00 0.00 0.00 39 1013.1
20210915234930 76 165 3.5 10.4 0.00 0.00 0.00 39 1013.1
20210915234430 76 140 3.5 9.6 0.00 0.00 0.00 39 1013.1
20210915233930 76 155 4.3 10.4 0.00 0.00 0.00 38 1013.3
20210915233429 76 156 3.5 10.4 0.00 0.00 0.00 37 1013.1
20210915232930 76 138 2.6 6.1 0.00 0.00 0.00 37 1013.3
20210915232429 76 139 2.6 8.7 0.00 0.00 0.00 37 1013.3
20210915231929 77 132 2.6 8.7 0.00 0.00 0.00 36 1013.5
20210915231429 77 138 3.5 13.9 0.00 0.00 0.00 37 1013.4
20210915230930 77 160 3.5 13.9 0.00 0.00 0.00 36 1013.5
20210915230429 77 115 3.5 10.4 0.00 0.00 0.00 36 1013.6
20210915225926 77 146 4.3 8.7 0.00 0.00 0.00 35 1013.7
20210915225427 77 157 4.3 8.7 0.00 0.00 0.00 35 1013.8
20210915224927 77 188 3.5 9.6 0.00 0.00 0.00 34 1013.8
20210915224427 78 181 2.6 9.6 0.00 0.00 0.00 35 1013.8
20210915223926 78 198 2.6 8.7 0.00 0.00 0.00 35 1013.8
20210915223420 78 133 3.5 10.4 0.00 0.00 0.00 35 1014.0
20210915222920 78 186 3.5 10.4 0.00 0.00 0.00 34 1013.9
20210915222420 78 202 2.6 8.7 0.00 0.00 0.00 35 1013.9
20210915221921 78 203 3.5 8.7 0.00 0.00 0.00 35 1013.9
20210915221420 77 141 4.3 8.7 0.00 0.00 0.00 36 1014.0
20210915220920 77 130 4.3 11.3 0.00 0.00 0.00 36 1014.0
20210915220416 77 217 3.5 11.3 0.00 0.00 0.00 35 1014.2
20210915215918 77 146 2.6 7.8 0.00 0.00 0.00 35 1014.2
20210915215416 78 192 3.5 9.6 0.00 0.00 0.00 35 1014.2
20210915214914 78 234 4.3 9.6 0.00 0.00 0.00 34 1014.3
20210915214415 78 196 3.5 7.8 0.00 0.00 0.00 35 1014.3
20210915213915 78 218 3.5 7.8 0.00 0.00 0.00 33 1014.3
20210915213411 78 234 2.6 7.8 0.00 0.00 0.00 35 1014.4
20210915212909 78 257 2.6 9.6 0.00 0.00 0.00 35 1014.6
20210915212409 78 194 4.3 9.6 0.00 0.00 0.00 34 1014.5
20210915211908 77 177 4.3 9.6 0.00 0.00 0.00 34 1014.5
20210915211409 77 121 3.5 9.6 0.00 0.00 0.00 35 1014.6
20210915210909 76 213 2.6 9.6 0.00 0.00 0.00 36 1014.6
20210915210402 76 142 2.6 6.1 0.00 0.00 0.00 37 1014.7
20210915205902 76 180 3.5 9.6 0.00 0.00 0.00 36 1014.8
20210915205402 76 180 4.3 11.3 0.00 0.00 0.00 35 1014.9
20210915204903 76 184 4.3 11.3 0.00 0.00 0.00 35 1014.9
20210915204402 77 190 3.5 10.4 0.00 0.00 0.00 34 1015.0
20210915203902 77 181 3.5 7.8 0.00 0.00 0.00 35 1015.2
20210915203401 77 168 4.3 11.3 0.00 0.00 0.00 35 1015.2
20210915202901 77 270 5.2 11.3 0.00 0.00 0.00 33 1015.3
20210915202401 78 142 4.3 10.4 0.00 0.00 0.00 35 1015.3
20210915201901 77 232 4.3 8.7 0.00 0.00 0.00 34 1015.2
20210915201402 78 160 4.3 8.7 0.00 0.00 0.00 34 1015.4
20210915200902 78 222 4.3 12.2 0.00 0.00 0.00 33 1015.5
20210915200403 78 194 4.3 12.2 0.00 0.00 0.00 34 1015.6
20210915195902 77 226 4.3 10.4 0.00 0.00 0.00 35 1015.7
20210915195403 77 225 4.3 10.4 0.00 0.00 0.00 35 1015.7
20210915194901 77 159 4.3 8.7 0.00 0.00 0.00 35 1015.8
20210915194402 77 185 4.3 12.2 0.00 0.00 0.00 35 1015.8
20210915193901 77 138 3.5 12.2 0.00 0.00 0.00 35 1015.8
20210915193402 77 228 3.5 8.7 0.00 0.00 0.00 36 1015.9
20210915192901 77 155 4.3 11.3 0.00 0.00 0.00 36 1016.0
20210915192402 77 216 5.2 11.3 0.00 0.00 0.00 35 1016.0
20210915191904 77 153 4.3 8.7 0.00 0.00 0.00 37 1015.9
20210915191404 77 225 3.5 8.7 0.00 0.00 0.00 36 1016.0
20210915190902 77 198 4.3 8.7 0.00 0.00 0.00 37 1016.1
20210915190402 77 180 4.3 8.7 0.00 0.00 0.00 36 1016.1
20210915185902 76 180 3.5 8.7 0.00 0.00 0.00 40 1016.2
20210915185401 77 235 3.5 8.7 0.00 0.00 0.00 39 1016.4
20210915184901 76 186 4.3 8.7 0.00 0.00 0.00 40 1016.4
20210915184401 76 223 4.3 8.7 0.00 0.00 0.00 41 1016.7
20210915183905 76 208 4.3 8.7 0.00 0.00 0.00 41 1016.7
20210915183401 76 212 3.5 8.7 0.00 0.00 0.00 42 1016.8
20210915182903 76 133 4.3 9.6 0.00 0.00 0.00 39 1016.9
20210915182400 75 214 4.3 9.6 0.00 0.00 0.00 38 1016.8
20210915181901 75 232 4.3 9.6 0.00 0.00 0.00 40 1016.8
20210915181402 75 211 5.2 11.3 0.00 0.00 0.00 43 1016.9
20210915180901 75 140 4.3 11.3 0.00 0.00 0.00 43 1016.8
20210915180400 75 215 3.5 8.7 0.00 0.00 0.00 44 1016.9
20210915175902 75 205 3.5 8.7 0.00 0.00 0.00 47 1016.9
20210915175402 74 192 3.5 7.8 0.00 0.00 0.00 45 1017.1
20210915174901 75 242 2.6 6.1 0.00 0.00 0.00 47 1017.1
20210915174401 74 201 2.6 6.1 0.00 0.00 0.00 47 1017.1
20210915173901 75 126 2.6 8.7 0.00 0.00 0.00 50 1017.1
20210915173400 74 240 3.5 8.7 0.00 0.00 0.00 49 1017.3
20210915172901 73 233 3.5 7.8 0.00 0.00 0.00 50 1017.2
20210915172401 73 167 3.5 7.8 0.00 0.00 0.00 50 1017.2
20210915171901 73 169 3.5 7.8 0.00 0.00 0.00 49 1017.3
20210915171402 73 244 2.6 6.1 0.00 0.00 0.00 50 1017.3
20210915170902 73 210 2.6 6.1 0.00 0.00 0.00 52 1017.4
20210915170402 72 217 2.6 6.1 0.00 0.00 0.00 51 1017.5
20210915165901 71 184 3.5 6.1 0.00 0.00 0.00 50 1017.5
20210915165401 71 238 3.5 6.1 0.00 0.00 0.00 50 1017.6
20210915164901 71 236 3.5 6.1 0.00 0.00 0.00 51 1017.5
20210915164401 71 207 3.5 6.1 0.00 0.00 0.00 51 1017.5
20210915163901 71 194 2.6 6.1 0.00 0.00 0.00 51 1017.4
20210915163400 71 217 2.6 7.8 0.00 0.00 0.00 53 1017.5
20210915162901 70 217 3.5 7.8 0.00 0.00 0.00 52 1017.5
20210915162401 69 244 3.5 8.7 0.00 0.00 0.00 54 1017.6
20210915161902 69 226 3.5 8.7 0.00 0.00 0.00 53 1017.7
20210915161401 69 244 2.6 7.0 0.00 0.00 0.00 55 1017.7
20210915160901 69 170 2.6 6.1 0.00 0.00 0.00 55 1017.8
20210915160400 69 234 2.6 7.0 0.00 0.00 0.00 57 1017.8
20210915155901 68 243 3.5 7.0 0.00 0.00 0.00 55 1017.7
20210915155401 68 208 3.5 6.1 0.00 0.00 0.00 57 1017.7
20210915154902 67 205 3.5 7.8 0.00 0.00 0.00 56 1017.7
20210915154400 67 273 3.5 7.8 0.00 0.00 0.00 60 1017.9
20210915153901 67 238 3.5 7.8 0.00 0.00 0.00 61 1017.9
20210915153402 66 227 4.3 8.7 0.00 0.00 0.00 61 1017.9
20210915152902 66 205 3.5 8.7 0.00 0.00 0.00 61 1018.0
20210915152401 66 194 3.5 5.2 0.00 0.00 0.00 62 1017.9
20210915151901 65 208 3.5 6.1 0.00 0.00 0.00 64 1017.9
20210915151400 65 182 2.6 6.1 0.00 0.00 0.00 65 1017.8
20210915150903 65 190 2.6 5.2 0.00 0.00 0.00 65 1017.8
20210915150400 65 193 1.7 4.3 0.00 0.00 0.00 67 1017.7
20210915145901 64 192 2.6 5.2 0.00 0.00 0.00 66 1017.6
20210915144901 64 198 1.7 4.3 0.00 0.00 0.00 69 1017.5
20210915144401 63 198 1.7 2.6 0.00 0.00 0.00 69 1017.4
20210915143901 62 194 1.7 3.5 0.00 0.00 0.00 71 1017.5
20210915143402 62 194 1.7 4.3 0.00 0.00 0.00 71 1017.4
20210915142859 61 209 1.7 4.3 0.00 0.00 0.00 72 1017.4
20210915142359 61 223 1.7 4.3 0.00 0.00 0.00 73 1017.4
20210915141859 60 180 1.7 4.3 0.00 0.00 0.00 74 1017.3
20210915141400 60 175 1.7 4.3 0.00 0.00 0.00 75 1017.3
20210915140901 60 173 1.7 4.3 0.00 0.00 0.00 76 1017.4
20210915140402 59 169 1.7 3.5 0.00 0.00 0.00 78 1017.3
20210915135859 58 170 1.7 4.3 0.00 0.00 0.00 79 1017.4
20210915135353 58 169 2.6 5.2 0.00 0.00 0.00 80 1017.3
20210915134854 57 163 1.7 5.2 0.00 0.00 0.00 82 1017.3
20210915134353 56 197 1.7 3.5 0.00 0.00 0.00 83 1017.2
20210915133854 56 197 1.7 3.5 0.00 0.00 0.00 85 1017.3
20210915133354 55 197 1.7 3.5 0.00 0.00 0.00 87 1017.2
20210915132854 54 196 1.7 3.5 0.00 0.00 0.00 88 1017.1
20210915132350 54 196 1.7 2.6 0.00 0.00 0.00 89 1017.2
20210915131853 53 194 1.7 2.6 0.00 0.00 0.00 90 1017.1
20210915131350 53 194 1.7 2.6 0.00 0.00 0.00 91 1017.2
20210915130850 52 177 0.9 2.6 0.00 0.00 0.00 92 1017.1
20210915130349 52 177 0.9 2.6 0.00 0.00 0.00 93 1017.1
20210915125848 51 177 0.9 2.6 0.00 0.00 0.00 94 1017.1
20210915125341 51 177 1.7 2.6 0.00 0.00 0.00 94 1017.3
20210915124839 51 128 0.9 2.6 0.00 0.00 0.00 94 1017.1
20210915124338 50 80 0.9 1.7 0.00 0.00 0.00 94 1017.1
20210915123836 50 80 0.0 1.7 0.00 0.00 0.00 94 1017.1
20210915123336 50 80 0.0 0.0 0.00 0.00 0.00 94 1017.1
20210915122832 50 80 0.0 0.9 0.00 0.00 0.00 94 1017.1
20210915122331 50 80 0.0 1.7 0.00 0.00 0.00 94 1016.9
20210915121829 49 80 0.9 2.6 0.00 0.00 0.00 94 1016.9
20210915121330 49 80 0.9 2.6 0.00 0.00 0.00 94 1016.8
20210915120830 49 355 0.0 1.7 0.00 0.00 0.00 94 1016.8
20210915120330 49 355 0.0 0.9 0.00 0.00 0.00 94 1016.8
20210915115829 49 355 0.0 0.9 0.00 0.00 0.00 94 1016.7
20210915115330 49 355 0.0 0.9 0.00 0.00 0.00 94 1016.7
20210915114830 49 355 0.0 0.0 0.00 0.00 0.00 94 1016.6
20210915114329 49 355 0.0 0.0 0.00 0.00 0.00 94 1016.5
20210915113829 49 355 0.0 0.0 0.00 0.00 0.00 94 1016.6
20210915113328 49 355 0.0 0.0 0.00 0.00 0.00 94 1016.6
20210915112829 49 355 0.0 0.0 0.00 0.00 0.00 94 1016.7
20210915112329 49 355 0.0 0.9 0.00 0.00 0.00 94 1016.5
20210915111829 49 355 0.0 0.9 0.00 0.00 0.00 94 1016.5
20210915111329 49 355 0.0 0.0 0.00 0.00 0.00 94 1016.5
20210915110829 49 355 0.0 0.0 0.00 0.00 0.00 94 1016.4
20210915110330 49 355 0.0 0.0 0.00 0.00 0.00 94 1016.4
20210915105830 49 355 0.0 0.0 0.00 0.00 0.00 93 1016.4
20210915105330 49 355 0.0 0.9 0.00 0.00 0.00 93 1016.4
20210915104829 49 355 0.0 0.9 0.00 0.00 0.00 93 1016.3
20210915104330 49 355 0.0 0.0 0.00 0.00 0.00 94 1016.4
20210915103830 49 355 0.0 0.0 0.00 0.00 0.00 93 1016.4
20210915103329 49 355 0.0 0.0 0.00 0.00 0.00 93 1016.4